Date String (YYYY-MM-DD hh:mm:ss) UTC,Instrument flags,absolute air pressure of the measurement (hPa),sample flow rate (lpm),inlet stack bypass flow (lpm),air temperature of the measurement (°C),ambient temperature measured by the external sensor (°C),aerosol sample conditioner tube jacket temperature (°C),OPC LED temperature (°C),internal box temperature (°C),relative humidity of the measurement (%),span deviation,mass concentration of particles derived from Lorenz-Mie calculation of OPC scattering (μg/m³),mass concentration of particles derived from Lorenz-Mie calculation of OPC scattering (μg/m³),mass concentration of particles derived from Lorenz-Mie calculation of OPC scattering (μg/m³)
DateTimeUTC,F1_M11,P_M11,Q1_M11,Q2_M11,T1_M11,T2_M11,T3_M11,T4_M11,T5_M11,U1_M11,ZSPAN_M11,X0_M11,X2_M11,X1_M11
2024-06-15 15:00:00,SystemResetWarning,0827.2,5.00,000.00,029.4,027.2,000.0,038.2,030.7,037.4,0001.4,0019.79,0008.45,0006.93
2024-06-15 15:01:00,SystemResetWarning,0827.2,5.01,000.00,029.4,027.6,000.0,038.1,030.9,037.4,0001.4,0020.68,0008.45,0006.96
2024-06-15 15:02:00,SystemResetWarning,0827.2,5.01,000.00,029.5,028.0,000.0,038.1,031.1,037.4,0001.6,0021.02,0008.56,0006.99
2024-06-15 15:03:00,SystemResetWarning,0827.2,5.00,000.00,029.5,028.3,000.0,038.1,031.2,037.1,0001.7,0021.46,0008.67,0007.03
2024-06-15 15:04:00,SystemResetWarning,0827.3,5.00,000.00,029.6,028.5,000.0,038.1,031.3,037.1,0001.3,0022.01,0008.68,0007.05
2024-06-15 15:05:00,SystemResetWarning,0827.3,5.00,000.00,029.6,028.7,000.0,038.0,031.4,036.5,0001.1,0022.35,0008.69,0007.08
2024-06-15 15:06:00,SystemResetWarning,0827.3,5.01,000.00,029.7,028.9,000.0,038.0,031.5,036.4,0001.1,0022.34,0008.64,0007.10
2024-06-15 15:07:00,SystemResetWarning,0827.3,4.99,000.00,029.8,029.0,000.0,038.1,031.6,036.9,0000.5,0022.93,0008.71,0007.12
2024-06-15 15:08:00,SystemResetWarning,0827.3,5.00,000.00,029.8,029.2,000.0,038.1,031.6,036.5,0000.3,0023.19,0008.80,0007.15
2024-06-15 15:09:00,SystemResetWarning,0827.3,5.00,000.00,029.9,029.3,000.0,038.1,031.7,036.4,0000.6,0022.87,0008.85,0007.18
2024-06-15 15:10:00,SystemResetWarning,0827.3,5.00,000.00,029.9,029.4,000.0,038.1,031.7,036.6,0000.9,0023.07,0008.93,0007.23
2024-06-15 15:11:00,SystemResetWarning,0827.2,5.01,000.00,030.0,029.5,000.0,038.1,031.8,036.1,0001.5,0024.02,0009.00,0007.25
2024-06-15 15:12:00,SystemResetWarning,0827.2,5.00,000.00,030.0,029.5,000.0,038.2,031.9,035.8,0001.4,0023.43,0009.03,0007.26
2024-06-15 15:13:00,SystemResetWarning,0827.2,4.99,000.00,030.1,029.6,000.0,038.2,031.9,036.0,0001.2,0023.16,0009.08,0007.28
2024-06-15 15:14:00,SystemResetWarning,0827.2,4.99,000.00,030.1,029.6,000.0,038.3,031.9,035.3,0001.2,0023.41,0009.11,0007.30
2024-06-15 15:15:00,SystemResetWarning,0827.1,5.00,000.00,030.0,028.1,000.0,038.3,031.2,035.6,0001.0,0022.68,0009.14,0007.32
2024-06-15 15:16:00,SystemResetWarning,0827.1,5.01,000.00,029.6,026.6,000.0,038.4,030.5,036.1,0001.4,0021.41,0009.15,0007.31
2024-06-15 15:17:00,SystemResetWarning,0827.1,5.02,000.00,029.4,026.5,000.0,038.3,030.4,036.7,0001.4,0021.77,0009.18,0007.33
2024-06-15 15:18:00,SystemResetWarning,0827.1,5.00,000.00,029.4,026.9,000.0,038.2,030.5,036.9,0002.0,0021.27,0009.16,0007.33
2024-06-15 15:19:00,SystemResetWarning,0827.2,4.99,000.00,029.4,027.3,000.0,038.1,030.7,036.8,0002.1,0020.22,0009.05,0007.32
2024-06-15 15:20:00,SystemResetWarning,0827.1,5.00,000.00,029.4,027.7,000.0,038.0,030.9,036.2,0001.8,0021.05,0009.03,0007.32
2024-06-15 15:21:00,SystemResetWarning,0827.1,5.01,000.00,029.4,028.0,000.0,038.0,031.1,035.7,0001.6,0021.04,0009.00,0007.30
2024-06-15 15:22:00,SystemResetWarning,0827.1,5.00,000.00,029.5,028.3,000.0,038.0,031.2,035.7,0001.7,0021.15,0009.00,0007.30
2024-06-15 15:23:00,SystemResetWarning,0827.1,5.00,000.00,029.5,028.5,000.0,038.0,031.3,036.0,0002.0,0021.62,0009.00,0007.28
2024-06-15 15:24:00,SystemResetWarning,0827.1,5.00,000.00,029.6,028.7,000.0,038.0,031.4,036.2,0001.6,0022.23,0008.97,0007.28
2024-06-15 15:25:00,SystemResetWarning,0827.1,5.00,000.00,029.7,028.9,000.0,038.0,031.4,036.0,0001.3,0022.17,0008.93,0007.28
2024-06-15 15:26:00,SystemResetWarning,0827.2,5.00,000.00,029.7,029.0,000.0,038.0,031.5,035.9,0001.2,0022.04,0008.92,0007.29
2024-06-15 15:27:00,SystemResetWarning,0827.2,5.00,000.00,029.8,029.1,000.0,038.0,031.6,034.8,0001.2,0022.25,0008.90,0007.27
2024-06-15 15:28:00,SystemResetWarning,0827.1,5.00,000.00,029.8,029.2,000.0,038.0,031.7,035.0,0001.3,0021.89,0008.84,0007.24
2024-06-15 15:29:00,SystemResetWarning,0827.1,5.00,000.00,029.9,029.3,000.0,038.1,031.7,034.8,0001.0,0021.58,0008.77,0007.22
2024-06-15 15:30:00,SystemResetWarning,0827.1,5.00,000.00,029.9,029.4,000.0,038.1,031.8,034.8,0001.4,0021.54,0008.83,0007.21
2024-06-15 15:31:00,SystemResetWarning,0827.1,5.00,000.00,030.0,029.5,000.0,038.1,031.8,035.4,0001.8,0020.61,0008.85,0007.21
2024-06-15 15:32:00,SystemResetWarning,0827.1,5.00,000.00,030.0,029.0,000.0,038.2,031.6,035.3,0002.2,0020.83,0008.83,0007.22
2024-06-15 15:33:00,SystemResetWarning,0827.0,5.00,000.00,029.7,027.1,000.0,038.2,030.6,035.4,0001.7,0021.14,0008.83,0007.24
2024-06-15 15:34:00,SystemResetWarning,0827.0,5.01,000.00,029.4,026.3,000.0,038.2,030.2,036.8,0001.2,0021.11,0008.77,0007.26
2024-06-15 15:35:00,SystemResetWarning,0827.0,5.01,000.00,029.2,026.5,000.0,038.2,030.2,036.6,0001.7,0021.39,0008.82,0007.28
2024-06-15 15:36:00,SystemResetWarning,0827.0,5.00,000.00,029.2,026.9,000.0,038.0,030.4,036.7,0001.9,0021.24,0008.83,0007.27
2024-06-15 15:37:00,SystemResetWarning,0827.0,5.00,000.00,029.2,027.3,000.0,037.9,030.7,036.2,0001.7,0021.10,0008.84,0007.25
2024-06-15 15:38:00,SystemResetWarning,0827.0,5.00,000.00,029.3,027.7,000.0,037.9,030.9,035.5,0001.9,0021.40,0008.85,0007.25
2024-06-15 15:39:00,SystemResetWarning,0827.0,5.00,000.00,029.3,028.0,000.0,037.9,031.0,035.3,0002.1,0021.46,0008.89,0007.24
2024-06-15 15:40:00,SystemResetWarning,0827.0,5.00,000.00,029.4,028.3,000.0,037.8,031.1,036.1,0002.1,0022.49,0008.88,0007.23
2024-06-15 15:41:00,SystemResetWarning,0827.0,5.00,000.00,029.4,028.5,000.0,037.8,031.2,036.4,0002.1,0023.60,0008.87,0007.21
2024-06-15 15:42:00,SystemResetWarning,0827.0,5.00,000.00,029.5,028.7,000.0,037.8,031.3,036.2,0001.7,0024.48,0008.86,0007.20
2024-06-15 15:43:00,SystemResetWarning,0827.0,5.00,000.00,029.6,028.8,000.0,037.8,031.4,036.3,0001.6,0024.99,0008.87,0007.19
2024-06-15 15:44:00,SystemResetWarning,0827.0,5.00,000.00,029.6,029.0,000.0,037.9,031.4,035.7,0001.7,0024.71,0008.88,0007.18
2024-06-15 15:45:00,SystemResetWarning,0827.0,5.00,000.00,029.7,029.1,000.0,037.9,031.5,035.7,0002.4,0024.17,0008.97,0007.16
2024-06-15 15:46:00,SystemResetWarning,0826.9,5.00,000.00,029.8,029.2,000.0,037.9,031.6,035.6,0002.3,0024.39,0008.99,0007.15
2024-06-15 15:47:00,SystemResetWarning,0827.0,4.99,000.00,029.8,029.3,000.0,038.0,031.7,035.7,0001.4,0024.75,0009.01,0007.15
2024-06-15 15:48:00,SystemResetWarning,0826.9,5.00,000.00,029.9,029.4,000.0,038.0,031.8,035.3,0001.4,0025.25,0009.02,0007.15
2024-06-15 15:49:00,SystemResetWarning,0826.9,5.00,000.00,029.9,029.1,000.0,038.0,031.5,035.6,0000.9,0024.90,0009.02,0007.15
2024-06-15 15:50:00,SystemResetWarning,0826.8,5.00,000.00,029.7,027.2,000.0,038.1,030.7,036.1,-000.0,0025.49,0009.02,0007.17
2024-06-15 15:51:00,SystemResetWarning,0826.8,5.02,000.00,029.3,026.2,000.0,038.1,030.2,037.3,-000.1,0024.94,0009.06,0007.20
2024-06-15 15:52:00,SystemResetWarning,0826.8,5.00,000.00,029.2,026.4,000.0,038.0,030.2,037.8,-000.3,0024.65,0009.02,0007.22
2024-06-15 15:53:00,SystemResetWarning,0826.8,5.00,000.00,029.1,026.8,000.0,037.9,030.4,037.7,-000.4,0023.87,0008.95,0007.25
2024-06-15 15:54:00,SystemResetWarning,0826.8,5.00,000.00,029.2,027.2,000.0,037.8,030.6,037.8,-001.1,0023.07,0008.93,0007.26
2024-06-15 15:55:00,SystemResetWarning,0826.8,4.99,000.00,029.2,027.6,000.0,037.8,030.8,037.8,-001.3,0022.46,0008.90,0007.26
2024-06-15 15:56:00,SystemResetWarning,0826.8,5.00,000.00,029.2,027.9,000.0,037.8,030.9,037.6,-001.5,0022.47,0008.82,0007.26
2024-06-15 15:57:00,SystemResetWarning,0826.8,5.00,000.00,029.3,028.2,000.0,037.7,031.0,037.9,-001.4,0021.48,0008.76,0007.28
2024-06-15 15:58:00,SystemResetWarning,0826.8,5.01,000.00,029.4,028.4,000.0,037.7,031.1,037.6,-000.9,0020.79,0008.71,0007.29
2024-06-15 15:59:00,SystemResetWarning,0826.8,5.00,000.00,029.4,028.6,000.0,037.8,031.2,036.9,-000.3,0020.54,0008.69,0007.31
